Flag for Canada Weather past 2 weeks in Chatham-Kent, Ontario, Canada

Now
68 °F

Mild.


Feels Like: 68 °F
Forecast: N/A
Wind: 10 mph from North

Location: Erieau

Current Time: Jul 3, 2015 at 6:02:20 PM

Latest Report: Jul 3, 2015 at 5:00 PM


Visibility: N/A

Pressure: 29.93 "Hg

Humidity: 57%

Dew point: 52 °F

Location of Chatham-KentLocation

Historic Weather in Chatham-Kent — Graph

°F

Chatham-Kent temperature yesterday

Maximum temperature yesterday: 67 °F (at 7:00 PM)
Minimum temperature yesterday: 56 °F (at 5:00 AM)
Average temperature yesterday: 63 °F

Past Weeks' High & Low Weather Summary

 TemperatureHumidityPressure
High77 °F (Jun 23, 10:00 AM)100% (Jun 30, 3:00 AM)30.14 "Hg (Jun 30, 3:00 AM)
Low56 °F (Jul 2, 5:00 AM)49% (Jun 23, 5:00 PM)29.62 "Hg (Jun 27, 7:00 PM)
Average65 °F83%29.91 "Hg
* Reported Jun 18 5:00 PM — Jul 3 5:00 PM, Chatham-Kent, Weather by CustomWeather, © 2015

Note: Actual official high and low records may vary slightly from our data, if they occured in-between our weather recording intervals... More about our weather records

Advertising

Chatham-Kent weather history for previous 24 hours

 ConditionsComfort  
Time TempWeatherWind HumidityBarometerVisibility
5:00 PM
Fri, Jul 3
68 °FMild.10 mph57%29.93 "HgN/A
4:00 PM68 °FMild.8 mph59%29.95 "HgN/A
3:00 PM67 °FMild.8 mph66%29.98 "HgN/A
2:00 PM67 °FMild.8 mph71%29.97 "HgN/A
1:00 PM66 °FMild.9 mph69%29.98 "HgN/A
12:00 PM66 °FMild.10 mph73%29.98 "HgN/A
11:00 AM65 °FMild.10 mph75%29.98 "HgN/A
10:00 AM65 °FMild.9 mph80%29.99 "HgN/A
9:00 AM64 °FMild.8 mph83%30.00 "HgN/A
8:00 AM63 °FMild.7 mph83%30.00 "HgN/A
7:00 AM60 °FCool.5 mph82%29.98 "HgN/A
6:00 AM60 °FCool.6 mph78%29.98 "HgN/A
5:00 AM59 °FCool.6 mph76%29.98 "HgN/A
4:00 AM58 °FCool.6 mph74%29.98 "HgN/A
3:00 AM59 °FCool.5 mph67%29.98 "HgN/A
2:00 AM60 °FCool.3 mph63%29.99 "HgN/A
1:00 AM62 °FCool.5 mph63%30.00 "HgN/A
12:00 AM62 °FMild.7 mph60%29.99 "HgN/A
11:00 PM
Thu, Jul 2
63 °FMild.9 mph60%29.99 "HgN/A
10:00 PM65 °FMild.9 mph65%29.98 "HgN/A
9:00 PM66 °FMild.2 mph64%29.97 "HgN/A
8:00 PM66 °FMild.3 mph73%29.97 "HgN/A
7:00 PM67 °FMild.2 mph72%29.96 "HgN/A
6:00 PM65 °FMild.3 mph76%29.96 "HgN/A
Weather by CustomWeather, © 2015

See weather overviewHow to use our weather pages